Home > Weather > Curitiba > Past weeks

Flag for Brazil Weather for the Past 2 Weeks in Curitiba, Paraná, Brazil

Now
41 °F

Clear.


Feels Like: 41 °F
Forecast: 40 / 68 °F
Wind: No wind

Location: Curitiba Aeroporto

Current Time: May 2, 2016 at 3:24:39 AM

Latest Report: May 2, 2016 at 3:00 AM


Visibility: 10 mi

Pressure: 30.18 "Hg (26.97 "Hg at 915m altitude)

Humidity: 93%

Dew Point: 39 °F

Location of CuritibaLocation

Historic Weather in Curitiba — Graph

°F

Curitiba Temperature Yesterday

Maximum temperature yesterday: 64 °F (at 1:00 PM)
Minimum temperature yesterday: 36 °F (at 6:00 AM)
Average temperature yesterday: 50 °F

High & Low Weather Summary for the Past Weeks

 TemperatureHumidityPressure
High84 °F (Apr 17, 1:00 PM)100% (Apr 17, 4:00 AM)30.24 "Hg (Apr 17, 4:00 AM)
Low36 °F (May 1, 6:00 AM)27% (Apr 17, 3:00 PM)29.77 "Hg (Apr 26, 3:00 AM)
Average64 °F74%30.08 "Hg
* Reported Apr 17 2:00 AM — May 2 2:00 AM, Curitiba, Weather by CustomWeather, © 2016

Note: Actual official high and low records may vary slightly from our data, if they occured in-between our weather recording intervals... More about our weather records

Advertising

Curitiba Weather History for the Previous 24 Hours

Scroll right to see more
 ConditionsComfort  
Time TempWeatherWind HumidityBarometerVisibility
2:00 AM
Mon, May 2
41 °FClear.2 mph93%30.21 "Hg10 mi
1:00 AM43 °FClear.No wind100%30.21 "Hg10 mi
12:00 AM45 °FClear.No wind100%30.21 "Hg10 mi
11:00 PM
Sun, May 1
45 °FClear.2 mph100%30.24 "Hg10 mi
10:00 PM46 °FClear.3 mph93%30.21 "Hg10 mi
9:00 PM46 °FClear.5 mph87%30.21 "Hg10 mi
8:00 PM50 °FClear.2 mph82%30.21 "Hg10 mi
7:00 PM52 °FClear.3 mph77%30.18 "Hg10 mi
6:00 PM55 °FClear.6 mph63%30.18 "Hg10 mi
5:00 PM61 °FClear.8 mph52%30.18 "Hg10 mi
4:00 PM64 °FSunny.5 mph40%30.18 "Hg10 mi
3:00 PM64 °FSunny.7 mph40%30.15 "Hg10 mi
2:00 PM64 °FSunny.7 mph40%30.15 "Hg10 mi
1:00 PM64 °FSunny.5 mph40%30.18 "Hg10 mi
12:00 PM63 °FSunny.5 mph42%30.21 "Hg10 mi
11:00 AM59 °FSunny.6 mph48%30.24 "Hg10 mi
10:00 AM54 °FSmoke.3 mph58%30.24 "HgN/A
9:00 AM46 °FSunny.No wind76%30.24 "Hg10 mi
8:00 AM43 °FSunny.3 mph81%30.21 "Hg10 mi
7:00 AM37 °FSunny.5 mph93%30.21 "Hg10 mi
6:00 AM36 °FSunny.2 mph100%30.18 "Hg10 mi
5:00 AM39 °FClear.3 mph87%30.15 "Hg10 mi
4:00 AM37 °FClear.2 mph93%30.15 "Hg10 mi
3:00 AM41 °FClear.2 mph81%30.15 "Hg10 mi
Weather by CustomWeather, © 2016

See weather overviewHow to use our weather pages